Location: Blackwall
(51.5097°N, 0.0016°W)
Time: 23:27:41
(UTC+00:00)

CZ-4C R/B - Pass Details

Date: 15 May 2026
Orbit: 473 x 1503 km, 63.4° (Epoch: 11 June)

Event Time Altitude Azimuth Distance (km) Brightness Sun altitude
Rises 20:53:05 0° 254° (WSW) 2,830 5.3 -8.9°
Reaches altitude 10° 20:55:13 10° 262° (W) 2,039 4.7 -9.1°
Maximum altitude 20:59:35 40° 333° (NNW) 1,105 3.5 -9.6°
Drops below altitude 10° 21:05:14 10° 42° (NE) 2,638 4.9 -10.2°
Sets 21:08:20 0° 50° (NE) 3,775 5.6 -10.5°
